Location: Carrer del Canonge
(41.4901°N, 2.2931°E)
Time: 05:05:37
(UTC+00:00)

Cosmos 1536 Rocket - Pass Details

Date: 18 September 2020
Orbit: 606 x 632 km, 82.5° (Epoch: 25 October)

Event Time Altitude Azimuth Distance (km) Brightness Sun altitude
Rises 20:11:00 0° 346° (NNW) 2,914 7.6 -25.4°
Reaches altitude 10° 20:13:18 10° 340° (NNW) 2,007 6.8 -25.8°
Maximum altitude 20:17:34 47° 267° (W) 830 4.4 -26.5°
Enters shadow 20:18:26 41° 232° (SW) 909 4.5 -26.7°
